Lapse_Rate
6.5 6.5 6.5 6.5 6.5 6.5 6.5 6.5 6.5 6.5 6.5 6.5 6.5 6.5 6.3 6.3 6.4 6.5 6.6 6.7 6.7 6.6 5.9 4.4 3.2 1.0 0.9 0.7 0.2 0.6 2.1 2.4 1.9 1.1 0.6 0.8 0.9 1.1 1.0 1.3 0.9 1.4 1.6 1.6
6.5 6.5 6.5 6.5 6.5 6.5 6.5 6.5 6.5 6.5 6.5 6.5 6.3 6.3 6.3 6.4 6.5 6.6 6.6 6.8 7.1 7.0 6.8 5.4 2.9 1.4 0.6 1.3 1.2 0.4 1.8 2.9 2.6 1.6 1.3 1.0 1.3 1.4 1.3 1.2 1.4 1.5 1.5 1.7
6.5 6.5 6.5 6.5 6.5 6.5 6.5 6.5 6.5 6.5 6.5 6.5 6.5 6.5 6.3 6.3 6.4 6.5 6.7 6.9 6.9 6.7 6.1 4.6 2.0 1.0 1.8 2.1 1.7 1.1 1.2 1.5 2.6 2.5 2.0 1.8 1.6 1.7 1.6 1.3 1.1 1.2 1.5 1.9
6.5 6.5 6.5 6.5 6.5 6.5 6.5 6.5 6.5 6.5 6.5 6.5 6.3 6.0 5.8 5.2 5.5 6.4 6.8 6.8 6.1 5.3 4.2 1.8 1.6 3.0 3.2 2.8 2.6 1.4 1.7 1.2 1.8 2.7 2.1 1.8 2.0 2.1 1.9 1.7 1.5 1.6 1.2 0.9
6.5 6.5 6.5 6.5 6.5 6.5 6.5 6.5 6.5 6.5 6.5 6.3 6.3 6.3 5.9 5.9 6.5 6.3 6.0 5.1 5.0 3.4 2.7 2.9 3.5 4.2 3.8 2.3 1.4 1.9 2.0 1.5 1.6 2.3 1.9 1.9 1.8 1.8 1.9 1.9 1.6 1.5 2.1 2.1
6.5 6.5 6.5 6.5 6.5 6.2 6.5 6.5 6.5 6.3 6.5 6.5 6.2 6.5 6.5 5.0 5.9 5.0 5.1 5.1 4.9 4.3 5.1 4.7 4.3 2.6 2.0 2.3 1.7 1.6 2.1 1.8 1.6 2.0 2.0 1.8 1.6 0.9 1.2 1.5 1.4 1.8 2.4 2.6
6.5 6.5 6.5 6.5 6.5 6.3 6.5 6.5 6.0 6.0 5.4 5.7 6.5 5.9 5.2 5.5 5.5 5.4 5.7 5.9 6.4 4.9 3.5 3.0 1.8 3.3 1.9 1.9 2.0 2.5 1.8 1.2 0.8 1.3 1.7 2.1 1.9 1.7 1.8 1.6 1.6 1.6 2.1 2.6
6.5 6.5 6.5 6.4 6.3 6.5 6.4 5.8 5.9 5.2 4.6 4.9 4.4 4.5 5.4 5.6 4.9 5.0 5.4 6.7 6.3 4.5 3.1 1.6 1.6 1.3 0.3 1.3 2.0 1.5 2.1 2.1 1.8 1.7 1.9 1.9 2.2 2.2 2.6 2.2 2.3 2.3 2.4 1.9
6.5 6.5 6.1 5.9 5.1 5.3 4.6 5.5 4.9 4.9 4.6 3.8 4.3 5.0 5.2 4.6 4.6 5.8 6.9 6.4 6.2 4.1 2.0 0.6 0.5 0.6 1.0 1.3 1.8 2.1 2.1 2.3 2.3 2.1 2.1 2.1 2.3 2.7 3.0 2.7 2.8 2.7 2.8 2.4
6.5 6.5 6.5 5.2 5.0 4.9 5.5 5.9 5.0 5.4 4.9 4.5 4.5 5.0 5.2 4.2 3.9 5.1 6.3 6.5 7.0 5.6 2.7 -0.2 -0.2 0.7 1.1 0.6 0.9 2.1 2.6 2.8 2.9 2.9 2.5 2.4 2.3 3.1 3.1 2.8 2.9 3.1 2.7 2.4
6.5 6.5 6.3 6.2 6.1 5.5 5.8 5.1 4.6 4.4 4.8 5.2 5.1 5.3 5.2 4.6 3.8 4.2 4.5 5.4 5.4 5.5 3.7 -0.5 -1.6 -1.1 0.5 0.2 0.7 1.0 2.6 3.2 2.9 3.1 3.4 3.5 3.6 3.7 3.8 3.2 3.0 2.8 2.6 2.2
6.5 5.9 5.8 6.2 5.5 5.6 5.4 6.2 6.4 5.6 5.3 5.3 5.2 4.9 5.1 5.2 4.5 4.6 4.4 5.2 5.9 4.5 2.6 0.6 -1.3 -1.8 -0.8 0.2 0.7 0.9 2.1 3.2 3.3 3.9 4.2 4.2 3.8 4.0 4.1 3.5 3.6 3.6 3.2 2.6
6.2 5.5 5.4 5.7 5.5 6.2 5.9 5.6 5.6 5.7 5.1 5.1 5.1 5.0 5.2 5.1 4.7 4.7 4.6 4.9 5.1 3.4 1.4 1.4 -0.2 -0.6 -0.3 -0.4 0.1 1.0 1.9 3.4 3.6 4.4 4.7 4.4 3.3 3.9 4.2 4.9 4.5 4.1 4.0 4.0
5.5 5.6 6.0 5.4 4.9 5.9 5.7 5.5 6.0 5.7 5.4 5.4 5.6 5.1 4.5 3.8 3.8 2.5 2.6 2.1 1.7 1.9 1.7 0.3 0.8 -0.2 -0.3 -0.3 -0.1 0.3 0.8 1.6 2.8 2.8 2.1 3.0 3.1 3.6 4.1 4.0 4.3 4.4 4.8 4.9
5.5 5.6 5.7 6.2 5.7 5.6 6.9 7.2 7.3 7.0 7.2 6.9 6.2 5.4 5.1 4.6 3.6 3.0 1.8 -0.1 0.1 1.4 1.1 1.2 0.6 0.3 -0.6 -0.5 -0.3 -0.4 1.0 1.6 2.3 1.3 0.9 1.9 3.2 3.6 4.0 3.9 4.2 4.0 4.4 5.3
5.9 5.6 5.4 4.9 4.8 5.3 5.9 6.3 6.4 6.5 6.5 6.9 6.9 6.4 6.0 5.4 4.9 3.5 2.0 0.9 1.0 1.4 1.3 1.6 0.6 -0.1 -0.2 -0.1 -0.1 -0.2 1.3 2.0 2.0 2.0 2.7 3.1 3.2 3.2 3.4 3.6 3.6 4.0 4.2 4.2
5.2 4.3 5.5 5.5 6.2 6.3 6.5 7.5 7.5 7.4 7.2 6.9 7.5 6.3 5.8 5.4 4.5 3.8 1.7 2.1 1.3 -1.5 -0.3 0.3 0.1 0.1 1.0 0.0 0.2 0.8 1.4 1.6 2.3 2.4 3.1 2.8 3.2 3.1 3.1 2.8 3.1 3.4 2.7 1.9
5.1 4.9 5.4 5.9 6.6 7.1 7.3 7.0 7.1 7.4 6.5 6.7 5.9 4.3 3.4 4.2 5.1 4.4 2.9 2.1 2.5 2.2 1.8 2.2 0.9 0.8 1.7 1.6 1.4 1.8 2.0 1.7 2.5 2.6 2.8 3.2 3.4 3.3 3.0 2.9 3.1 3.0 1.7 2.5
4.2 4.5 5.4 6.6 6.7 6.8 6.7 6.9 6.5 6.0 5.4 5.3 5.1 4.9 5.1 5.2 5.8 4.7 2.7 2.4 2.6 2.7 2.3 1.6 1.5 1.9 2.6 2.9 3.2 3.1 3.0 2.2 3.1 3.5 3.6 3.5 3.4 3.2 2.7 2.7 2.5 1.8 2.2 1.7
6.7 7.7 7.2 6.7 7.0 6.7 6.4 6.6 6.6 6.0 5.7 5.5 5.3 5.2 5.0 4.7 5.4 4.7 3.9 3.1 3.3 3.2 2.6 2.9 2.9 3.7 3.6 3.5 3.8 3.5 3.3 3.0 3.9 3.7 3.8 3.7 3.6 3.2 2.3 1.9 2.0 0.5 -0.0 0.1
7.1 7.4 6.8 6.7 6.3 6.2 5.9 5.8 5.5 5.1 5.5 4.9 4.8 4.8 4.9 5.0 5.2 4.6 3.8 3.5 3.1 3.2 4.1 3.4 3.7 3.6 3.9 4.0 3.5 3.3 3.1 3.8 3.9 3.8 3.8 3.3 2.3 1.8 1.3 1.1 0.8 0.8 0.2 -0.4
6.9 6.4 6.1 6.1 5.8 5.7 5.8 5.5 5.2 4.8 4.6 4.7 4.9 5.1 5.0 5.0 5.1 4.3 3.8 4.0 3.2 3.5 3.3 3.6 4.0 4.2 3.9 3.4 3.7 3.6 3.9 4.1 4.0 3.5 2.7 1.4 1.0 0.2 0.2 0.3 0.8 1.4 1.9 2.0
6.3 6.0 5.9 5.7 5.8 5.8 5.5 5.4 5.1 4.1 4.3 4.6 4.5 4.9 5.3 4.7 4.1 3.9 3.5 3.0 3.0 3.5 3.4 3.3 3.6 3.8 3.8 3.9 3.8 4.1 4.1 3.6 3.0 2.4 1.5 0.7 0.7 0.9 1.2 1.6 1.5 1.7 1.9 2.9
5.7 5.3 5.4 5.8 5.4 4.4 4.5 4.7 3.9 5.0 3.5 4.1 4.6 4.2 3.9 3.9 3.5 2.1 2.3 2.9 3.1 3.6 3.7 4.3 4.6 4.8 4.7 4.1 3.6 3.4 2.8 2.0 2.0 1.5 1.6 1.4 1.8 2.0 1.8 2.2 2.5 2.6 2.7 1.7
4.8 5.3 5.1 5.4 5.1 5.2 5.6 5.5 4.4 3.6 3.0 3.7 3.8 3.6 3.7 3.4 3.5 2.7 2.6 2.4 3.3 3.2 3.5 3.4 4.1 4.6 4.8 4.7 4.0 1.4 1.5 1.5 1.8 2.3 5.0 4.9 2.5 3.3 3.2 1.8 1.2 0.8 0.2 0.8
4.2 4.5 5.4 5.7 5.7 5.9 5.7 4.7 5.2 4.9 3.2 3.3 3.5 2.8 3.0 2.3 2.8 2.9 2.6 2.6 2.8 3.3 3.8 4.1 4.5 4.7 4.2 3.6 3.7 3.4 1.0 1.5 1.8 2.3 2.3 1.9 1.5 -0.3 -0.6 -0.9 -0.5 -0.2 0.1 0.4
2.9 2.7 3.7 3.9 3.7 5.7 4.7 3.6 3.8 4.7 3.2 2.1 3.0 2.9 2.5 2.5 3.2 2.9 2.4 2.3 2.9 3.3 3.6 3.4 3.5 3.6 3.7 3.2 2.2 2.0 2.2 2.2 2.2 1.9 1.2 1.0 0.8 1.5 0.5 -0.5 -0.4 -0.3 1.3 1.0
Wind_Speed
4 4 2 3 4 6 7 7 7 17 12 21 23 19 17 18 19 18 20 17 16 18 16 16 13 7 6 5 5 5 3 2 3 5 8 7 8 8 10 10 10 9 10 9
3 3 5 9 7 10 11 12 12 16 24 15 20 18 18 19 19 20 19 19 22 23 17 15 13 10 7 5 5 8 4 2 4 6 7 7 7 8 9 10 9 9 8 9
2 4 5 9 10 14 6 8 8 10 15 13 12 15 18 17 17 15 19 21 20 21 15 12 11 11 10 8 7 7 7 5 5 6 6 6 7 8 8 9 10 10 10 9
3 4 3 3 1 6 10 9 9 11 11 11 9 11 12 7 10 16 16 20 20 15 8 5 10 9 7 7 2 5 6 6 6 5 6 6 7 6 6 6 7 6 7 10
4 4 8 7 7 5 6 8 7 7 6 7 8 8 8 8 10 13 16 17 10 6 3 8 11 11 6 8 9 8 7 7 7 6 7 7 8 8 7 8 7 7 6 8
3 5 6 4 3 3 4 5 6 7 7 7 5 4 6 9 9 10 10 7 7 7 4 4 6 7 7 6 8 8 8 6 6 6 6 6 7 8 8 9 8 7 6 5
5 4 6 3 4 3 4 5 5 2 6 6 4 6 8 12 11 7 6 7 7 4 3 1 5 6 8 9 9 7 7 6 6 6 6 6 6 4 7 8 9 9 8 5
2 2 8 1 3 2 3 7 6 5 8 7 8 8 9 9 8 8 9 10 4 3 3 4 1 6 6 8 5 7 7 7 7 7 6 6 8 7 8 9 9 9 8 5
7 6 6 4 7 9 10 11 12 6 11 9 7 7 8 7 7 6 7 7 3 6 3 2 2 5 6 5 7 7 6 5 5 5 6 7 9 9 7 9 8 7 7 5
1 5 7 8 7 10 12 15 10 12 12 8 9 9 10 7 6 5 1 7 1 4 6 6 2 4 5 5 5 6 5 5 6 7 7 7 6 7 7 8 7 7 7 6
4 11 10 15 12 9 12 9 9 9 9 11 10 12 10 8 7 5 4 4 9 6 6 6 5 8 7 6 6 6 6 5 5 4 6 6 5 6 7 7 10 9 7 8
6 10 7 9 6 8 8 11 11 7 6 5 4 7 7 9 8 7 5 3 11 8 4 5 6 6 7 7 6 6 6 5 5 5 5 5 6 5 6 10 14 14 16 10
8 7 7 10 10 15 17 14 7 6 7 8 7 6 5 5 8 8 7 8 10 6 7 5 3 4 4 6 6 6 5 5 4 6 5 7 7 6 7 8 15 15 16 16
9 10 11 9 6 5 6 7 8 7 7 6 5 5 5 6 7 8 9 8 6 9 8 7 6 6 5 6 7 6 6 8 5 4 4 4 6 6 6 7 7 7 13 12
9 8 8 4 6 6 5 6 8 8 7 6 5 4 7 9 8 9 10 4 4 5 6 10 10 9 8 7 7 8 6 5 5 4 3 4 5 5 5 6 5 5 4 6
3 4 4 5 6 5 6 7 7 7 7 8 9 6 8 9 10 10 12 6 7 10 12 11 10 7 9 9 8 7 6 8 6 6 5 5 5 5 5 5 5 5 5 4
2 4 3 4 6 7 6 7 8 9 9 8 9 3 5 8 9 11 7 8 8 0 5 8 8 9 9 10 10 7 7 7 8 7 6 6 6 6 5 5 5 4 3 3
3 5 5 4 5 6 6 7 8 8 6 8 8 7 7 7 9 13 10 5 6 5 7 8 8 8 9 10 10 8 7 7 7 7 6 6 6 6 5 5 5 5 2 2
5 5 5 5 5 5 7 7 6 6 8 8 7 8 8 8 9 7 5 5 6 8 5 7 10 12 11 11 10 7 8 8 7 6 6 7 6 6 5 5 5 4 5 4
8 9 7 7 6 6 8 7 7 8 9 8 8 8 9 9 8 6 4 7 6 3 6 8 11 9 9 11 11 7 8 8 8 7 6 6 6 6 5 6 5 4 4 4
6 7 7 7 7 7 7 7 6 8 8 7 8 9 9 8 6 5 3 3 3 3 5 7 6 5 6 8 9 7 8 7 7 7 7 6 6 5 5 5 5 5 4 3
5 5 6 7 7 8 7 7 7 5 7 8 8 9 7 6 5 3 3 4 1 5 4 4 5 8 7 10 6 7 7 8 7 6 5 5 5 5 5 5 5 5 5 5
6 6 6 6 6 7 7 6 5 5 6 7 8 8 4 3 2 3 2 1 1 4 3 4 7 10 12 6 7 7 7 7 6 5 5 5 5 5 4 5 4 4 4 5
5 5 5 6 5 4 5 7 7 7 4 6 6 6 1 1 1 1 0 4 5 5 4 5 8 11 9 6 6 6 5 5 5 4 4 5 4 4 4 4 4 4 4 4
5 4 3 4 3 5 8 9 6 4 3 4 5 5 5 3 1 1 2 3 6 4 4 7 8 9 5 6 6 4 4 4 4 4 5 5 4 4 3 3 4 4 3 3
3 3 3 4 3 3 4 4 5 3 2 2 2 3 3 2 2 3 3 4 3 5 5 5 5 4 4 5 4 5 4 4 4 4 4 4 4 3 3 3 3 3 3 4
2 3 3 3 2 3 4 3 3 4 2 1 1 3 2 2 3 4 4 3 4 4 4 5 4 5 4 4 4 4 4 4 4 4 4 4 3 3 4 4 4 4 4 4
Wind_Direction
97 113 159 180 196 180 184 189 216 277 259 284 295 298 299 301 296 290 287 281 282 280 273 253 243 204 166 158 133 128 28 44 83 101 101 102 100 113 116 115 107 115 117 108
167 196 240 254 218 216 219 241 250 259 276 269 280 293 295 293 293 290 285 287 288 290 278 252 224 195 143 158 150 132 143 178 120 105 110 113 125 121 113 114 118 117 122 127
193 72 350 298 221 216 197 237 221 238 253 276 279 280 282 293 293 285 286 291 299 297 276 241 192 158 150 172 179 134 156 157 137 128 125 136 131 127 126 130 130 138 138 138
152 71 294 241 63 155 205 234 240 255 262 271 272 282 288 268 278 294 303 302 303 299 281 123 129 146 145 176 143 132 152 148 142 140 136 131 125 129 126 131 131 129 121 113
143 195 294 282 213 173 180 260 239 233 254 264 279 295 272 260 281 297 303 295 281 284 182 145 156 166 158 140 153 158 161 163 160 161 160 156 152 147 142 132 122 119 126 132
131 167 236 214 203 136 107 273 177 197 247 265 298 291 289 284 305 310 325 321 319 331 324 171 172 134 108 130 156 170 173 165 162 159 159 172 164 157 148 140 130 122 124 129
199 215 275 292 317 127 180 245 210 219 264 265 237 222 271 300 300 281 277 310 307 323 314 279 129 139 148 163 186 168 149 153 159 162 167 166 151 144 145 137 132 128 124 130
107 163 254 98 12 217 272 305 281 263 257 255 258 280 286 285 285 294 298 298 301 177 289 352 194 150 150 174 149 141 157 167 173 171 162 156 156 149 147 141 134 132 130 116
172 212 219 198 189 234 263 259 269 256 265 248 258 263 263 268 288 306 326 309 210 166 170 330 354 129 136 148 145 152 147 164 159 152 156 160 157 154 148 147 143 140 141 137
112 258 245 253 240 239 262 268 261 264 251 259 264 276 263 267 278 284 284 303 225 172 220 141 133 101 111 121 122 131 131 144 154 162 164 160 151 157 153 153 147 147 145 144
254 279 275 254 249 248 258 262 268 266 251 252 260 269 249 257 248 241 272 260 293 250 226 158 160 139 149 129 129 129 136 147 148 157 163 153 145 165 165 163 161 160 160 153
238 239 230 260 253 271 271 282 275 276 288 288 258 265 275 256 249 221 207 243 295 242 147 210 154 137 143 145 140 134 142 141 144 147 147 135 126 109 114 142 154 155 153 153
240 246 236 260 263 274 265 267 255 271 268 269 274 276 276 277 269 257 205 205 222 185 138 168 156 137 142 137 130 142 134 136 140 146 147 144 133 139 135 136 149 155 157 158
241 255 277 258 249 291 253 262 270 273 268 267 269 296 301 291 283 280 259 227 211 175 169 157 182 177 166 153 142 136 136 139 147 148 138 145 137 148 155 153 157 156 172 166
239 216 220 257 279 266 269 286 281 278 276 262 244 263 297 301 300 290 294 261 185 188 159 165 180 187 168 157 151 142 144 152 155 137 124 134 135 142 154 151 161 155 138 166
273 271 257 251 264 289 280 278 278 285 287 282 268 242 267 278 291 292 289 240 171 187 191 195 183 171 167 162 154 142 153 159 157 149 145 139 143 143 148 152 155 163 171 168
290 310 283 271 260 273 273 277 277 279 281 282 296 318 288 288 295 297 313 281 247 240 171 190 180 158 179 168 160 163 157 157 165 159 158 157 162 159 157 153 159 165 153 163
38 29 14 338 306 297 289 279 276 283 291 297 295 286 278 272 275 290 302 277 230 205 178 173 150 158 182 179 166 165 162 159 177 166 152 159 165 155 154 155 158 157 139 135
27 355 328 303 299 291 294 293 295 292 288 273 270 272 269 268 271 272 277 266 235 234 186 164 161 169 176 176 168 166 163 159 170 164 159 158 157 150 150 156 157 148 156 151
343 331 322 311 300 292 296 291 290 293 289 279 274 270 266 264 261 251 228 247 244 212 157 160 163 174 169 170 168 164 160 164 172 160 156 160 160 157 156 158 156 153 157 165
324 315 307 302 300 295 282 284 286 287 293 287 276 269 259 260 257 226 214 243 218 197 162 162 164 160 167 164 165 160 157 160 163 158 161 162 152 152 156 161 163 167 170 168
299 300 299 297 295 293 292 292 281 282 293 294 292 283 246 250 236 215 217 222 208 179 157 164 160 159 157 157 156 151 154 158 157 152 154 150 154 160 172 170 173 178 183 183
293 286 286 286 291 295 301 300 305 299 296 305 305 304 247 227 186 160 229 248 143 147 130 134 141 143 142 137 140 144 150 153 153 154 154 156 164 169 170 181 183 174 177 185
291 290 286 292 299 311 318 319 315 298 296 305 314 325 318 141 89 50 154 144 134 133 117 130 135 136 130 130 133 143 146 145 146 143 145 155 167 164 166 167 170 171 166 158
297 292 284 311 339 338 323 316 305 307 317 333 337 341 354 355 158 157 104 112 136 121 119 122 128 121 112 127 130 132 139 143 146 140 155 162 157 157 156 155 163 168 159 159
294 294 298 314 300 312 322 320 320 312 312 324 328 342 353 359 49 86 89 100 104 114 117 130 133 119 108 117 125 132 133 130 133 134 139 135 133 136 138 131 137 141 136 127
311 335 333 336 321 336 336 325 325 321 329 328 321 339 1 31 62 75 84 81 94 100 106 111 115 116 118 121 118 118 120 119 123 128 122 127 126 137 133 133 128 119 110 113